Regional Weather Roundup
Issued by NWS

Home | Current Version | Previous Version | Text Only | Print | Product List | Glossary Off
Versions: 1 2 3 4 5 6 7 8 9 10 11 12 13 14 15 16 17 18 19 20 21 22 23 24 25 26 27 28 29 30 31 32 33 34 35 36 37 38 39 40 41 42 43 44 45 46 47 48 49

000
ASUS43 KDMX 301807
RWRIA

WEATHER ROUNDUP FOR IOWA
NATIONAL WEATHER SERVICE DES MOINES IA
100 PM CDT TUE SEP 30 2014

NOTE: "FAIR" INDICATES FEW OR NO CLOUDS BELOW 12,000 FEET WITH NO
SIGNIFICANT WEATHER AND/OR OBSTRUCTIONS TO VISIBILITY.

* - THESE STATIONS ARE NOT NWS STATIONS...THUS NOT UNDER NWS
QUALITY CONTROL.  THEY ALSO DO NOT REPORT WEATHER SUCH
AS PRECIPITATION OR FOG.

IAZ001>003-012>014-020>022-031>034-043>046-301900-
   NORTHWEST IOWA

CITY           SKY/WX    TMP DP  RH WIND       PRES   REMARKS
CARROLL *      CLOUDY    66  59  77 MISG      29.89F
CHEROKEE *     MOSUNNY   65  60  84 SE12      29.87F
DENISON *      PTSUNNY   73  63  68 S12       29.84F
LE MARS *      DRIZZLE   64  61  88 SE9G16    29.83F
ORANGE CITY *  PTSUNNY   64  55  72 SE12      29.83F
SHELDON *      CLOUDY    63  57  82 SE12G22   29.85F
SIOUX CITY     LGT RAIN  65  62  90 SE14      29.81F
6HR MIN TEMP:  57; 6HR MAX TEMP:  65; 6HR PCP:  0.11;

SPENCER        CLOUDY    59  54  83 SE13      29.90F
6HR MIN TEMP:  51; 6HR MAX TEMP:  59;

STORM LAKE *   PTSUNNY   63  57  82 SE14      29.90F
$$

IAZ055>058-069>071-079>083-090>094-301900-
   SOUTHWEST IOWA

CITY           SKY/WX    TMP DP  RH WIND       PRES   REMARKS
ATLANTIC *     CLOUDY    77  63  61 S10       29.86F
AUDUBON *      MOSUNNY   72  59  64 SE12      29.89F
CLARINDA *     SUNNY     81  63  54 SE10G17   29.86F HX  82
COUNCIL BLFS * SUNNY     75  63  64 S8        29.83F
CRESTON *      MOSUNNY   75  63  64 SE12G17   29.90F
HARLAN  *      PTSUNNY   77  63  61 S7G13     29.88F
LAMONI         SUNNY     75  63  66 SE8       29.90F
6HR MIN TEMP:  59; 6HR MAX TEMP:  75;

RED OAK *      PTSUNNY   79  61  53 S14       29.84F HX  80
SHENANDOAH *   CLOUDY    81  61  50 S15       29.83F HX  81
$$

IAZ047>049-059>061-072>074-084-301900-
   CENTRAL IOWA

CITY           SKY/WX    TMP DP  RH WIND       PRES   REMARKS
AMES           CLOUDY    62  56  80 SE12      29.94F
6HR MIN TEMP:  55; 6HR MAX TEMP:  62;

ANKENY *       CLOUDY    61  57  88 E10       29.94F
CHARITON *     PTSUNNY   66  61  82 E13       29.94F HAZE
DES MOINES     CLOUDY    63  56  78 E12       29.93F
6HR MIN TEMP:  59; 6HR MAX TEMP:  63;

GRINNELL*      CLOUDY    60  53  78 E10       29.98F
KNOXVILLE *    CLOUDY    61  57  88 E9G16     29.94F HAZE
MARSHALLTOWN   CLOUDY    58  53  84 E12       29.97F
6HR MIN TEMP:  53; 6HR MAX TEMP:  59;

PELLA *        CLOUDY    60  56  89 E8        29.98F FOG
PERRY *        CLOUDY    64  57  78 SE14      29.92F
$$

IAZ004>006-015-016-023>025-035-036-301900-
   NORTH CENTRAL IOWA

CITY           SKY/WX    TMP DP  RH WIND       PRES   REMARKS
ALGONA *       MOSUNNY   57  54  88 SE14      29.94F
CLARION *      PTSUNNY   63  54  72 SE14G20   29.95F
ESTHERVILLE    CLOUDY    56  53  90 SE18      29.92F
6HR MIN TEMP:  48; 6HR MAX TEMP:  56;

FORT DODGE *   CLOUDY    61  55  82 SE10G16   29.94F
MASON CITY     CLOUDY    56  50  80 SE14G22   29.99F
6HR MIN TEMP:  48; 6HR MAX TEMP:  56;

FOREST CITY *  CLOUDY    57  52  82 SE13      29.96F
IOWA FALLS *   CLOUDY    57  52  82 SE10G16   29.98F
$$

IAZ007>011-017>019-026>030-037>042-050>054-066-301900-
   NORTHEAST IOWA

CITY           SKY/WX    TMP DP  RH WIND       PRES   REMARKS
CEDAR RAPIDS   CLOUDY    57  52  82 E12       30.01F
CHARLES CITY * CLOUDY    55  48  76 E12       30.01F
CLINTON *      CLOUDY    55  48  76 NE6       30.06F
DECORAH *      CLOUDY    54  46  76 VRB6      30.03F
MONTICELLO *   MOSUNNY   55  48  76 SE7       30.03F
OELWEIN *      CLOUDY    55  46  71 E9        30.02F
WATERLOO       CLOUDY    55  48  77 SE14      30.00F
6HR MIN TEMP:  52; 6HR MAX TEMP:  56;

$$

IAZ064-065-067-068-078-301900-
   EAST CENTRAL IOWA

CITY           SKY/WX    TMP DP  RH WIND       PRES   REMARKS
IOWA CITY      CLOUDY    57  52  83 E10       30.02F
6HR MIN TEMP:  53; 6HR MAX TEMP:  57;

MT. PLEASANT * CLOUDY    62  53  72 E8        30.00S
MUSCATINE *    MOSUNNY   63  50  63 E9        30.01F
$$

IAZ062-063-075>077-085>089-095>099-301900-
   SOUTHEAST IOWA

CITY           SKY/WX    TMP DP  RH WIND       PRES   REMARKS
BURLINGTON     CLOUDY    61  56  83 NE9       29.99F
6HR MIN TEMP:  56; 6HR MAX TEMP:  62;

FAIRFIELD *    CLOUDY    61  54  77 E10G17    29.99F
FORT MADISON * PTSUNNY   70  55  60 E7        29.99F
KEOKUK *       CLOUDY    64  59  82 E9        29.98F
OSKALOOSA *      N/A     65  55  69 E10       29.98F
CENTERVILLE *  PTSUNNY   64  61  88 E9        29.97F
OTTUMWA        PTSUNNY   63  54  72 E10       29.97F
6HR MIN TEMP:  56; 6HR MAX TEMP:  63;

WASHINGTON *   CLOUDY    63  54  72 E10       30.00F
$$

ABBREVIATIONS USED IN REMARKS
   TC - TEMPERATURES IN CELSIUS
  WCI - WIND CHILL INDEX
   HX - HEAT INDEX
  VSB - VISIBILITY
$$



USA.gov is the U.S. government's official web portal to all federal, state and local government web resources and services.